STARLINK-32495, 62052

Orbit data source: Space-Track

STARLINK-32495, 62052 is a payload satellite owned by SpaceX/Seattle (US) in LEO that was launched on Thu, 21 Nov 2024 UTC via an FALCON 9 launch vehicle from the Air Force Eastern Test Range (AFETR). Payload-class satellites include a variety of spacecraft equipped with specific instruments for various scientific and technological missions. These include communications satellites like Starlink; space stations such as the ISS; scientific satellites like the Hubble; Earth observation satellites from companies like Planet Labs, Umbra, and HawkEye 360; GPS; miniature CubeSats for education and research; and military/defense satellites.

Loading next visibility...
Identifier
62052, 2024-216W
Orbit
LEO
Last TLE update
13 hours ago
Origin
Manufacturer
SpaceX/Seattle
Mission
Operational Commercial Communications
Bus & Motor
STARLINK V2M, Unknown motor
Mass
730 kg wet, ~700 kg dry
Launch date (UTC)
2024-11-21 (8 months ago)
Launch vehicle
FALCON 9
Launch site
Air Force Eastern Test Range (AFETR)
Object type
Payload
Rocket body
Debris
Shape & HBR
Box + 2 Pan, 29 m
Radar Cross Section
36.964 m², Large (>1 m²)

Expand to show TLE details & history

TLE from 13 hours ago
0 STARLINK-32495
1 62052U 24216W   25190.03142177  .00012335  00000-0  45690-3 0  9993
2 62052  42.9987 199.0885 0003597 290.0205  70.0259 15.27585747 35370
Epoch: 2025-07-09T00:45Z
TLE epoch observation values (Epoch: 2025-07-09T00:45:14.84Z)
Latitude
-0.00005°
Longitude
-99.44128°
Altitude
481.965 km
Speed
7.627 km/s
True Right ascension
13h 16m 21s
True Declination
0° 00' 00"
Sunlit
Object was in daylight at epoch
Visualization orbit readout
Latitude
43.12355°
Longitude
-15.25701°
Altitude
488.361 km
Speed
7.626 km/s
Apparent Right ascension
16h 24m 41s
Apparent Declination
4° 22' 20"
Sunlit
Object is in full shadow
Visualization observer readout
Local Sidereal Time
01:52:00
Azimuth
312.338° NW
Elevation
-33.525°
Doppler factor
1
Orbital elements
Apogee altitude
487.446 km
Perigee altitude
482.509 km
Semi-major axis
6,863.114 km
Eccentricity
0.00036
Inclination
42.9987°
RAAN
199.0885°
Arg. of periapsis
290.0205°
True anomaly
Unknown
Mean anomaly
70.0259°
Eccentric anomaly
Unknown
Mean motion
3.81734 °/min
Orbital period
94.31 mins
BSTAR
0.0004569
Loading maneuver chart data...
Loading SW <> Apogee altitude chart data...
Loading historical data...
Loading historical data...
Loading historical data...
Loading historical data...
Loading historical data...
Loading historical data...
Loading historical data...

STARLINK-32495 Visibility forecast

Observer location: undefined°, undefined°

Span
Click to sort rows by Start time (UTC) header in descending order
Start Az.
Max El. time (UTC)
Max El. Az.
Max El.
End time (UTC)
End Az.
5 mins2025-07-10 03:38:28.961Z208.619° SW2025-07-10 03:40:28.961Z166.313° S29.064°2025-07-10 03:43:28.961Z89.984° E
5 mins2025-07-10 05:17:28.961Z266.231° W2025-07-10 05:19:28.961Z314.589° NW42.503°2025-07-10 05:22:28.961Z68.462° E
6 mins2025-07-10 06:56:28.961Z292.288° WNW2025-07-10 06:58:28.961Z335.237° NNW37.097°2025-07-10 07:02:28.961Z82.181° E
6 mins2025-07-10 08:35:28.961Z283.929° WNW2025-07-10 08:38:28.961Z147.337° SSE41.484°2025-07-10 08:41:28.961Z117.833° SE
|